OneWeb SL0290

operational
NORAD ID: 49080 Int'l Des: 2021-075 Owner: ONEWEBN Country: UK Constellation: oneweb
LEOCIRCULARPOLARONEWEB_TYPE

OneWeb SL0290について

説明を読み込み中...

リアルタイム位置

3D地球を読み込み中...

次回通過

高度履歴

Altitude vs Time

uPlot chart will show altitude changes over time

軌道要素

1 49080U 21075F 25306.35713620 .00000178 00000-0 42623-3 0 9995
2 49080 87.9130 50.9472 0002430 100.3984 259.7421 13.17648890203745
Epoch: Nov 2, 2025 • Age: 11 hours

現在のステータス

高度 1211.6 km
速度 7.25 km/s
衛星直下点 -42.85°S, 77.27°E
打ち上げ日 Aug 21, 2021
運用期間 4.1 years
タイプ internet

技術仕様

分類 Payload
質量 148.00 kg
乾燥質量 140.00 kg
総質量 148.00 kg
長さ 1.30 m
直径 1.00 m
スパン 5.00 m
形状 Trapezoid+2 pan
製造者 ONEWUS
バスタイプ ARROW
フェーズステータス In Orbit
所有者/国 ONEWEBN/UK

大規模コンステレーション

Loading constellations...